Regional Weather Roundup
Issued by NWS Columbia, SC

Home | Current Version | Previous Version | Text Only | Print | Product List | Glossary On
Versions: 1 2 3 4 5 6 7 8 9 10 11 12 13 14 15 16 17 18 19 20 21 22 23 24 25 26 27
000
ASUS42 KCAE 070010
RWRCAE
REGIONAL WEATHER ROUNDUP
NATIONAL WEATHER SERVICE COLUMBIA SC
800 PM EDT FRI MAY 06 2016

NOTE: "FAIR" INDICATES FEW OR NO CLOUDS BELOW 12,000 FEET WITH NO
SIGNIFICANT WEATHER AND/OR OBSTRUCTIONS TO VISIBILITY.

NOT ALL STATIONS ARE QUALITY CONTROLLED BY THE NATIONAL
WEATHER SERVICE. USE DATA WITH CAUTION...ESPECIALLY
DEWPOINT OBSERVATIONS.

SCZ001>056-GAZ040-063>065-077-070100-
...UPSTATE SOUTH CAROLINA...

CITY           SKY/WX    TMP DP  RH WIND       PRES   REMARKS
ANDERSON       PTCLDY    66  40  38 CALM      29.86R
6HR MIN TEMP:  66; 6HR MAX TEMP:  74;

LIBERTY        PTCLDY    62  40  43 N5        29.86R
6HR MIN TEMP:  13; 6HR MAX TEMP:  86;

SPARTANBURG    PTCLDY    64  36  34 NW9       29.85R
CLEMSON        PTCLDY    67  41  38 W5        29.88R
6HR MIN TEMP:  67; 6HR MAX TEMP:  76;

GREENVILLE     CLEAR     66  37  34 NW8       29.87R
6HR MIN TEMP:  66; 6HR MAX TEMP:  71;

GREENWOOD      CLEAR     62  47  57 CALM      29.87R
6HR MIN TEMP:  62; 6HR MAX TEMP:  72;

GREER          CLEAR     64  37  36 N5        29.85R
6HR MIN TEMP:  64; 6HR MAX TEMP:  71;

ROCK HILL      CLOUDY    64  42  44 NW5       29.83R
6HR MIN TEMP:  64; 6HR MAX TEMP:  69;

CHESTER        PTCLDY    63  41  45 NW5       29.84R
LAURENS        CLEAR     64  45  48 CALM      29.85R


...CENTRAL SOUTH CAROLINA...

CITY           SKY/WX    TMP DP  RH WIND       PRES   REMARKS
COLUMBIA APT   PTCLDY    65  49  56 SW3       29.83R
6HR MIN TEMP:  65; 6HR MAX TEMP:  73; 6HR PCP: TRACE;

COLUMBIA OWENS CLEAR     67  46  47 CALM      29.84R
6HR MIN TEMP:  67; 6HR MAX TEMP:  74;

MCENTIRE ANGB  PTCLDY    64  49  58 SW3       29.83R
6HR MIN TEMP:  63; 6HR MAX TEMP:  72; 6HR PCP: TRACE;

ORANGEBURG     CLOUDY    58  52  80 CALM      29.84S
6HR MIN TEMP:  58; 6HR MAX TEMP:  73; 6HR PCP:  0.01;

SUMTER SHAW    CLEAR     63  52  67 W7        29.80R
6HR MIN TEMP:  63; 6HR MAX TEMP:  73;

NEWBERRY       PTCLDY    64  46  52 NW3       29.88R
AIKEN          FAIR      63  45  51 NE3       29.88R
BARNWELL       MOCLDY    64  52  63 CALM      29.86R
MANNING        MOCLDY    63  45  51 CALM      29.83R
LANCASTER      CLEAR     64  43  45 W3        29.83R


...EASTERN AND COASTAL SOUTH CAROLINA...

CITY           SKY/WX    TMP DP  RH WIND       PRES   REMARKS
MYRTLE BEACH   MOCLDY    64  48  55 NE8       29.82R
N MYRTLE BCH   CLOUDY    62  53  72 CALM      29.80R
6HR MIN TEMP:  62; 6HR MAX TEMP:  70; 6HR PCP: TRACE;

CONWAY         MOCLDY    59  52  77 CALM      29.81R
MARION         MOCLDY    59  54  82 CALM      29.81R
HARTSVILLE     FAIR      63  43  48 CALM      29.81R
FLORENCE       CLOUDY    67  47  48 NW6       29.81R
6HR MIN TEMP:  67; 6HR MAX TEMP:  73; 6HR PCP: TRACE;

DARLINGTON     CLEAR     65  48  54 CALM      29.81R
6HR MIN TEMP:  65; 6HR MAX TEMP:  71;

CHARLESTON APT MOCLDY    65  49  56 W7        29.83R
6HR MIN TEMP:  65; 6HR MAX TEMP:  74;

MOUNT PLEASANT FAIR      68  50  52 CALM      29.82R
WALTERBORO     CLOUDY    61  55  82 NW12G17   29.87R
BEAUFORT       PTCLDY    64  50  60 CALM      29.84R THUNDER
6HR MIN TEMP:  64; 6HR MAX TEMP:  73; 6HR PCP: TRACE;



...EASTERN GEORGIA...

CITY           SKY/WX    TMP DP  RH WIND       PRES   REMARKS
AUGUSTA BUSH F MOCLDY    66  46  48 N7        29.84R
6HR MIN TEMP:  66; 6HR MAX TEMP:  74;

AUGUSTA DANIEL PTCLDY    68  44  42 NW3       29.85R
6HR MIN TEMP:  68; 6HR MAX TEMP:  74; 6HR PCP: TRACE;

THOMSON        PTCLDY    65  51  59 CALM      29.90S
6HR MIN TEMP:  65; 6HR MAX TEMP:  73;

WASHINGTON     FAIR      61  43  51 CALM      29.86R
CLAXTON        FAIR      68  51  54 W5        29.85R
6HR MIN TEMP:  68; 6HR MAX TEMP:  74;

SYLVANIA       CLEAR     64  55  72 CALM      29.85R
6HR MIN TEMP:  64; 6HR MAX TEMP:  74;

STATESBORO     PTCLDY    70  51  51 NW6       29.84S
6HR MIN TEMP:  70; 6HR MAX TEMP:  76;

SAVANNAH       MOCLDY    68  47  46 W3        29.84R
6HR MIN TEMP:  68; 6HR MAX TEMP:  75;



...SOUTHERN NORTH CAROLINA...

CITY           SKY/WX    TMP DP  RH WIND       PRES   REMARKS
CHARLOTTE      MOCLDY    64  39  39 N12       29.83R
6HR MIN TEMP:  64; 6HR MAX TEMP:  69;

MONROE         CLEAR     63  41  44 W6        29.81R
6HR MIN TEMP:  63; 6HR MAX TEMP:  69;

WADESBORO      CLEAR     65  41  41 CALM      29.80R
6HR MIN TEMP:  65; 6HR MAX TEMP:  71;

ROCKINGHAM     CLEAR     63  48  58 CALM      29.80R
6HR MIN TEMP:  61; 6HR MAX TEMP:  68; 6HR PCP:  0.02;

RUTHERFORDTON  CLEAR     64  39  39 NW3       29.86R
ASHEVILLE      PTCLDY    59  36  42 N7        29.90R
6HR MIN TEMP:  59; 6HR MAX TEMP:  63;


$$




USA.gov is the U.S. government's official web portal to all federal, state and local government web resources and services.